Flag for U.S.A. Weather past 2 weeks in Rancho Cucamonga, California, U.S.A.

Now
62 °F

Clear.


Feels Like: 62 °F
Forecast: 59 / 79 °F
Wind: No wind

Location: Ontario International Airport

Current Time: Oct 20, 2014 at 4:41:05 AM

Latest Report: Oct 20, 2014 at 3:53 AM


Visibility: 8 mi

Pressure: 29.85 "Hg

Humidity: 86%

Dew point: 58 °F

Location of Rancho CucamongaLocation

Historic Weather in Rancho Cucamonga — Graph

°F

Rancho Cucamonga temperature yesterday

Maximum temperature yesterday: 80 °F (at 2:53 PM)
Minimum temperature yesterday: 58 °F (at 6:53 AM)
Average temperature yesterday: 68 °F

Past Weeks' High & Low Weather Summary

 TemperatureHumidityPressure
High99 °F (Oct 5, 1:53 PM)96% (Oct 14, 5:53 AM)30.01 "Hg (Oct 14, 5:53 AM)
Low58 °F (Oct 17, 6:53 AM)7% (Oct 5, 12:53 PM)29.75 "Hg (Oct 8, 3:53 PM)
Average72 °F57%29.89 "Hg
* Reported Oct 5 2:53 AM — Oct 20 2:53 AM, Rancho Cucamonga, Weather by CustomWeather, © 2014

Note: Actual official high and low records may vary slightly from our data, if they occured in-between our weather recording intervals... More about our weather records

Advertising

Rancho Cucamonga weather history for previous 24 hours

 ConditionsComfort  
Time TempWeatherWind HumidityBarometerVisibility
2:53 AM
Oct 20
63 °FClear.No wind84%29.85 "Hg10 mi
1:53 AM62 °FClear.3 mph83%29.86 "Hg10 mi
12:53 AM64 °FClear.3 mph81%29.87 "Hg10 mi
11:53 PM
Oct 19
65 °FClear.No wind81%29.87 "Hg10 mi
10:53 PM67 °FClear.3 mph73%29.87 "Hg10 mi
9:53 PM67 °FClear.5 mph71%29.86 "Hg10 mi
7:53 PM70 °FClear.6 mph68%29.85 "Hg10 mi
6:53 PM72 °FSunny.8 mph64%29.83 "Hg10 mi
5:53 PM76 °FPassing clouds.7 mph56%29.81 "Hg10 mi
4:53 PM79 °FPassing clouds.10 mph48%29.79 "Hg10 mi
3:53 PM80 °FPassing clouds.12 mph41%29.80 "Hg10 mi
2:53 PM80 °FPassing clouds.12 mph41%29.81 "Hg10 mi
1:53 PM79 °FPassing clouds.10 mph39%29.83 "Hg10 mi
12:53 PM76 °FPassing clouds.6 mph43%29.85 "Hg9 mi
11:53 AM73 °FPassing clouds.5 mph50%29.88 "Hg8 mi
10:53 AM69 °FSunny.6 mph57%29.90 "Hg8 mi
9:53 AM67 °FSunny.No wind63%29.90 "Hg8 mi
8:53 AM63 °FSunny.3 mph75%29.91 "Hg8 mi
7:53 AM60 °FClear.No wind78%29.89 "Hg9 mi
6:53 AM58 °FClear.No wind81%29.88 "Hg9 mi
5:53 AM59 °FClear.No wind81%29.85 "Hg10 mi
4:53 AM60 °FClear.No wind78%29.84 "Hg10 mi
Weather by CustomWeather, © 2014

See weather overviewHow to use our weather pages